Regional Weather Roundup
Issued by NWS Lake Charles, LA

Home | Current Version | Previous Version | Text Only | Print | Product List | Glossary On
Versions: 1 2 3 4 5 6 7 8 9 10 11 12 13 14 15 16 17 18 19 20 21 22 23 24 25 26 27
000
ASUS44 KLCH 241210
RWRLCH
REGIONAL WEATHER ROUNDUP
NATIONAL WEATHER SERVICE LAKE CHARLES LA
700 AM CDT SUN JUL 24 2016

Note: "fair" indicates few or no clouds below 12,000 feet with no
significant weather and/or obstructions to visibility.


ACROSS SOUTHEAST TEXAS

CITY           SKY/WX    TMP DP  RH WIND       PRES   REMARKS
BEAUMONT       CLEAR     78  76  93 CALM      29.95R
BEAUMONT CITY  FAIR      78  75  91 CALM      29.97R
ORANGE         MOSUNNY   77  74  91 CALM      29.97R
JASPER         PTCLDY    74  73  95 CALM      29.99S
$$

ACROSS CENTRAL LOUISIANA

CITY           SKY/WX    TMP DP  RH WIND       PRES   REMARKS
LEESVILLE      PTCLDY    79  76  91 W6        29.97R
FULLERTON      FAIR      77  75  93 CALM      29.95R
ALEXANDRIA INT PTCLDY    78  76  93 CALM      29.95R
ESLER FIELD    PTCLDY    77  77 100 CALM      29.97R FOG
DERIDDER       FAIR      77  76  96 CALM      29.99S
OAKDALE        SUNNY     75  74  97 CALM      29.97R
OPELOUSAS      FAIR      75  75  99 NW5       29.97R
$$

ACROSS SOUTHWEST AND SOUTH CENTRAL LOUISIANA

CITY           SKY/WX    TMP DP  RH WIND       PRES   REMARKS
SULPHUR        MOSUNNY   80  78  95 CALM      29.96S
LAKE CHARLES   PTCLDY    79  75  87 N3        29.95R
CHENNAULT INT  PTCLDY    77  73  88 CALM      29.96R
CAMERON PHI    PTSUNNY   84  77  79 SW6       29.94S
DEQUINCY       FAIR      75  75 100 CALM      29.97R
JENNINGS       FAIR      79  77  94 CALM      29.96R
LAFAYETTE      PTCLDY    81  76  84 CALM      29.96R
NEW IBERIA     CLEAR     78  76  93 CALM      29.97R
ABBEVILLE      FAIR      76  76 100 CALM      29.97R
PATTERSON      PTCLDY    78  77  96 CALM      29.97R
SALT POINT       N/A     84  76  76 CALM      29.95R
$$

SELECTED SITES ACROSS THE REGION

CITY           SKY/WX    TMP DP  RH WIND       PRES   REMARKS
HOUSTON BUSH   MOCLDY    78  76  93 CALM      29.95S
HOUSTON HOBBY  MOCLDY    79  76  90 CALM      29.95R
GALVESTON      PTCLDY    83  77  82 SW7       29.95S
COLLEGE STAT   PTCLDY    78  76  93 SE3       29.96S
CONROE         CLEAR     76  74  93 CALM      29.97S
HUNTSVILLE     PTCLDY    79  75  87 S3        29.97R
LUFKIN         PTCLDY    76  74  93 S3        29.97R
SHREVEPORT     CLOUDY    78  76  93 CALM      29.96R
MONROE         PTCLDY    76  75  97 CALM      29.96R
NATCHEZ MS     CLOUDY    77  73  88 S3        29.98R
BATON ROUGE    PTCLDY    77  74  90 NE3       29.98R
N.O. INTL ARPT MOCLDY    82  77  84 W3        29.97R
SLIDELL        PTCLDY    76  75  97 CALM      29.97R
$$

MARINE REPORTS

STATION/POSITION TIME  SKY/WX   TEMP    WIND        PRES    VSBY
                                AIR SEA DIR/SP/G
                 (UTC)          (F)     (DEG/KT/KT) (MB)    (MI)
BUOY 30 S HIGH I 1150            86 88  230/ 12/ 14 1013.7S
WVE H/P(F/S)=  2/ 4

SEA RIM ST PARK  1200            85     240/  5/  6 1014.8R
PORT ARTHUR      1100               89  220/  5/  6 1014.1R
SABINE PASS N    1100            84 90  220/  3/  6 1015.2R
TEXAS POINT      NOT AVBL
CALCASIEU PASS   1100            86 89  220/ 10/ 12 1013.2R
LK CHARLES BEACH 1100            81 90              1014.6R
MARSH ISLAND     1100            87                   N/A
FRESH WATER LOCK 1100            84 89  200/  5/  7 1014.8R
AMERADA PASS     1100            83 87   CALM  /  3 1014.1R
$$




USA.gov is the U.S. government's official web portal to all federal, state and local government web resources and services.